Retour au catalogue

SL-14 DEB

ActifPO
NORAD 45283·DEBRIS·🇷🇺 Russia

Lancé Aug 15, 1991 depuis Plesetsk Cosmodrome

Loading…

Prochains Passages (prochaines 24 heures)

TLE

FraisSource: Space-Track

Époque: Sep 14, 2026, 13:54 UTC

1 45283U 91056V   26257.57983680  .00003073  00000-0  11659-1 0  9997
2 45283  82.5230 198.3910 0261175  83.9820 279.0976 12.79987830305830

Suivez SL-14 DEB en temps réel avec AllMySat

Download on the App Store